Simultaneous Nadir Overpasses (SNOs) Predictions

Prediction of SNOs between METOP-A and NOAA-19 Satellite Orbit:

Table of predicted SNOs for the next 14.0 days since TLE Epoch: 3/13/2017
Index Date (METOP-A) Time (METOP-A) Lat,Lon (METOP-A) SZA (METOP-A ) Date (NOAA-19) Time (NOAA-19) Lat,Lon (NOAA-19) SZA (NOAA-19 ) Distance(km) Time Diff (sec)
1 03/14/2017 19:18:35 -77.07, 74.18 100.78 03/14/2017 19:17:21 -77.08, 73.54 100.77 16.07 74
2 03/14/2017 20:09:17 76.99,-118.84 79.12 03/14/2017 20:08:26 77.00,-118.89 79.14 2.14 51
3 03/14/2017 20:59:59 -76.96, 48.41 100.92 03/14/2017 20:59:20 -76.97, 48.53 100.91 3.13 39
4 03/14/2017 21:50:39 76.97,-144.25 79.08 03/14/2017 21:50:27 76.97,-144.26 79.08 0.55 12
5 03/14/2017 22:41:21 -76.95, 23.00 100.96 03/14/2017 22:41:22 -76.98, 22.97 100.93 3.69 1
6 03/14/2017 23:32:01 76.95,-169.66 79.03 03/14/2017 23:32:28 76.94,-169.64 79.03 1.03 27
7 03/15/2017 00:22:43 -76.93, -2.42 101.01 03/15/2017 00:23:23 -76.95, -2.40 100.99 2.42 40
8 03/15/2017 01:13:23 76.93, 164.92 78.99 03/15/2017 01:14:29 76.91, 164.99 78.97 2.60 66
9 03/15/2017 02:04:09 -76.73, -28.53 101.23 03/15/2017 02:05:20 -76.75, -27.06 101.21 37.55 71
10 03/25/2017 12:55:51 77.05, -10.24 74.97 03/25/2017 12:54:37 77.02, -10.21 74.94 3.50 74
11 03/25/2017 13:46:33 -77.04, 157.07 105.05 03/25/2017 13:45:33 -77.04, 156.94 105.06 3.31 60
12 03/25/2017 14:37:13 77.03, -35.66 74.92 03/25/2017 14:36:39 77.03, -35.78 74.92 3.03 34
13 03/25/2017 15:27:55 -77.03, 131.66 105.10 03/25/2017 15:27:34 -77.01, 131.57 105.11 2.79 21
14 03/25/2017 16:18:35 77.01, -61.07 74.88 03/25/2017 16:18:40 77.00, -61.16 74.87 2.33 5
15 03/25/2017 17:09:17 -77.01, 106.24 105.14 03/25/2017 17:09:35 -76.98, 106.19 105.17 3.04 18
16 03/25/2017 17:59:57 76.99, -86.49 74.83 03/25/2017 18:00:41 76.97, -86.53 74.81 2.48 44
17 03/25/2017 18:50:39 -76.99, 80.83 105.19 03/25/2017 18:51:36 -76.96, 80.81 105.22 3.92 57
18 03/25/2017 19:41:28 76.57,-113.47 74.37 03/25/2017 19:42:34 76.60,-110.47 74.43 77.33 66




NCC Satellite Simultaneous Nad
